Вернуться в каталог

DELTA 1 DEB

АктивенUNKNOWN
NORAD 7025·DEBRIS·🇺🇸 United States

Запущен Nov 6, 1973 с Vandenberg Space Force Base

Loading…

Ближайшие Пролёты (ближайшие 24 часа)

TLE

СвежийSource: Space-Track

Эпоха: Sep 14, 2026, 09:34 UTC

1 07025U 73086R   26257.39884546 -.00000025  00000-0  12612-3 0  9990
2 07025 101.9128 226.5069 0463146  44.5804 123.4280 11.54280268227500

Отслеживайте DELTA 1 DEB в реальном времени с AllMySat

Download on the App Store